Погода в Нижнем Тимерчееве

Россия / Чувашская Республика     55°11′00″N   47°23′17″E
темп.,
°C
ветер,
м/с
пор.,
м/с
влажн.,
%
обл.,
%
осадки,
мм/ч
давл.,
гПа
погр.,
м
29 ноября, пн
пн2900:00+1ююз49100100 0.0 1015227
03:00+1ююз38100100 0.1 1015180
06:00+1ю26100100 0.1 1015122
09:00+1ююв36100100 0.2 1016130
12:00+2юв49100100 0.1 1015187
15:00+2ююв61399100 0.1 1013311
18:00+2юв71599100 4.5 1009387
21:00+3ююв81797100 9.6 1007683
30 ноября, вт
вт3000:00+3ююв71697100 0.6 1004565
03:00+3ююв91997100 1.6 1000523
06:00+3ююв122491100 2.9 994938
09:00+4ю112191100 4.8 991836
12:00+4ю102092100 0.4 989719
15:00+5ю81692100 0.4 989662
18:00+6ююз614875 0.1 990431
21:00+5ююз916745 0.1 990766
1 декабря, ср
ср100:00+3юз9157597 0.0 991912
03:00+1ююз7147775 0.0 992736
06:00+1ююз51180100 0.0 993542
09:000ююз4884100 0.0 992460
12:000зюз2482100 0.1 990413
15:00−1зсз2494100 0.9 990282
18:00−1з4882100 0.6 991706
21:00−2з51079100 0.6 992729
2 декабря, чт
чт200:00−2зюз6107688 0.0 994838
03:00−3зюз6107887 0.0 996825
06:00−3зюз61180100 0.0 997872
09:00−2зюз61072100 0.1 9991158
12:00−3з6106769 0.1 10011072
15:00−3зюз51066100 0.1 1003837
18:00−3зюз51065100 0.0 1004776
21:00−2юз5106898 0.0 1004684
3 декабря, пт
пт300:00−3ю5119498 0.2 1003547
03:00−1ююз5139693 0.6 1002522
06:00+1юз61397100 0.2 1003659
09:00+2юз71494100 0.2 1004582
12:00+3зюз71587100 0.0 1006753
15:00+3зюз71382100 0.0 1008846
18:00+1зюз51089100 0.0 1011266
21:00+1юз5119299 0.0 1012303